Time,TemperatureF,DewpointF,PressureIn,WindDirection,WindDirectionDegrees,WindSpeedMPH,WindSpeedGustMPH,Humidity,HourlyPrecipIn,Conditions,Clouds,dailyrainin,SoftwareType,DateUTC
2013-04-17 00:00:00,18.0,16.0,-100.00,ENE,73,7.0,9.0,92,0.00,,,-99.99,,2013-04-17 07:00:00,
2013-04-17 01:00:00,19.0,17.0,-100.00,NW,315,6.0,8.0,93,0.00,,,-99.99,,2013-04-17 08:00:00,
2013-04-17 02:00:00,18.0,16.0,-100.00,WNW,296,6.0,8.0,93,0.00,,,-99.99,,2013-04-17 09:00:00,
2013-04-17 03:00:00,19.0,17.0,-100.00,NW,316,8.0,10.0,93,0.00,,,-99.99,,2013-04-17 10:00:00,
2013-04-17 04:00:00,19.0,17.0,-100.00,West,280,7.0,9.0,93,0.00,,,-99.99,,2013-04-17 11:00:00,
2013-04-17 05:00:00,18.0,16.0,-100.00,WNW,287,8.0,10.0,93,0.00,,,-99.99,,2013-04-17 12:00:00,
2013-04-17 06:00:00,19.0,17.0,-100.00,WNW,285,8.0,10.0,93,0.00,,,-99.99,,2013-04-17 13:00:00,
2013-04-17 07:00:00,20.0,18.0,-100.00,WNW,283,8.0,12.0,93,0.00,,,-99.99,,2013-04-17 14:00:00,
2013-04-17 08:00:00,22.0,21.0,-100.00,West,278,8.0,10.0,94,0.00,,,-99.99,,2013-04-17 15:00:00,
2013-04-17 09:00:00,32.0,27.0,-100.00,West,281,7.0,12.0,83,0.00,,,-99.99,,2013-04-17 16:00:00,
2013-04-17 10:00:00,32.0,28.0,-100.00,WNW,287,6.0,9.0,85,0.00,,,-99.99,,2013-04-17 17:00:00,
2013-04-17 11:00:00,36.0,32.0,-100.00,West,281,3.0,8.0,84,0.00,,,-99.99,,2013-04-17 18:00:00,
2013-04-17 12:00:00,35.0,30.0,-100.00,WNW,287,2.0,5.0,81,0.00,,,-99.99,,2013-04-17 19:00:00,
2013-04-17 13:00:00,37.0,31.0,-100.00,WNW,287,1.0,12.0,80,0.00,,,-99.99,,2013-04-17 20:00:00,
2013-04-17 14:00:00,36.0,30.0,-100.00,WNW,286,1.0,5.0,80,0.00,,,-99.99,,2013-04-17 21:00:00,
2013-04-17 15:00:00,34.0,30.0,-100.00,WNW,290,1.0,8.0,86,0.00,,,-99.99,,2013-04-17 22:00:00,
2013-04-17 17:00:00,31.0,28.0,-100.00,WNW,284,3.0,12.0,89,0.00,,,-99.99,,2013-04-18 00:00:00,
2013-04-17 18:00:00,29.0,26.0,-100.00,WNW,284,3.0,9.0,90,0.00,,,-99.99,,2013-04-18 01:00:00,
2013-04-17 19:00:00,29.0,27.0,-100.00,West,281,3.0,12.0,92,0.00,,,-99.99,,2013-04-18 02:00:00,
2013-04-17 20:00:00,28.0,27.0,-100.00,WNW,287,3.0,13.0,95,0.00,,,-99.99,,2013-04-18 03:00:00,
2013-04-17 21:00:00,27.0,27.0,-100.00,WNW,287,3.0,10.0,98,0.00,,,-99.99,,2013-04-18 04:00:00,
2013-04-17 22:00:00,27.0,27.0,-100.00,WNW,286,5.0,10.0,98,0.00,,,-99.99,,2013-04-18 05:00:00,
2013-04-17 23:00:00,27.0,27.0,-100.00,WNW,288,5.0,9.0,98,0.00,,,-99.99,,2013-04-18 06:00:00,